Погода в Катандуве

Бразилия     21°08′00″S   49°00′53″W
темп.,
°C
ветер,
м/с
пор.,
м/с
влажн.,
%
обл.,
%
осадки,
мм/ч
давл.,
гПа
погр.,
м
25 февраля, чт
чт2500:00+22с5792100 0.9 1012170
03:00+21ссв3689100 2.6 1011132
06:00+20св359080 0.1 1011105
09:00+25с357673 0.1 1012408
12:00+27ссз346466 0.0 1012753
15:00+30сз355580 0.0 10091768
18:00+27юз237666 2.9 100683
21:00+23юв338350 4.5 100940
26 февраля, пт
пт2600:00+22в338782 1.9 101059
03:00+20св379554 2.2 1009194
06:00+20св39950 0.0 1009278
09:00+24ссв58780 0.2 1011573
12:00+28ссв56620 2.0 1010975
15:00+28ссв556814 4.2 10081095
18:00+24всв468428 1.8 1008207
21:00+20в499136 6.7 1010213
27 февраля, сб
сб2700:00+20всв478992 4.1 1011160
03:00+19в369149 4.3 1010150
06:00+19в389320 0.0 1012207
09:00+24св487910 0.2 1013718
12:00+27св34732 11.2 1012586
15:00+24всв348349 21.7 1009141
18:00+24в478474 0.2 1009287
21:00+21в598986 0.3 1012266
28 февраля, вс
вс2800:00+21всв389266 3.6 1012263
03:00+20всв499467 4.4 1011315
06:00+20всв389274 0.0 1012296
09:00+24св587968 0.5 1013652
12:00+26ссв586553 0.8 10131224
15:00+26ссв577329 3.4 10101050
18:00+24св37832 0.9 1009643
21:00+21всв498848 1.6 1011261
1 марта, пн
пн100:00+21всв4118598 0.0 1012335
03:00+20всв4118192 0.0 1010360
06:00+19всв498693 0.0 1011242
09:00+24св6117593 0.0 1013778
12:00+26ссв697168 1.0 10121050
15:00+27ссв576942 3.2 10091197
18:00+25ссв357960 0.6 1009271
21:00+22всв238739 0.6 101154